Woodlawn, VA

5:35 PM EDT on September 30, 2016 (GMT -0400)
Twin County

Weather History for KHLX - April, 2013

Change the Weather History Date:

Tuesday, April 9, 2013

  Actual Average (KBLF) Record (KBLF)
Temperature  
Mean Temperature 66 °F 53 °F  
Max Temperature 80 °F 63 °F 82 °F (2015)
Min Temperature 53 °F 44 °F 18 °F (1972)
Degree Days  
Heating Degree Days 0 12  
Month to date heating degree days 123  
Since 1 July heating degree days 4232  
Cooling Degree Days 2 1  
Month to date cooling degree days 7  
Year to date cooling degree days 11  
Growing Degree Days 16 (Base 50)    
Moisture  
Dew Point 51 °F    
Average Humidity 56    
Maximum Humidity 88    
Minimum Humidity 30    
Precipitation  
Precipitation 0.00 in 0.11 in 1.18 in (1998)
Month to date precipitation 0.94  
Year to date precipitation 10.11  
Snow  
Snow 0.00 in - - ()
Month to date snowfall  
Since 1 July snowfall  
Snow Depth -    
Sea Level Pressure  
Sea Level Pressure 30.19 in    
Wind  
Wind Speed 6 mph (SSW)    
Max Wind Speed 13 mph    
Max Gust Speed 21 mph    
Visibility 10 miles    
Events      
T = Trace of Precipitation, MM = Missing Value Source: NWS Daily Summary

Daily Weather History Graph

Daily Weather History Graph

Search for Another Location

Airport or City:

Trip Planner

Search our weather history database for the weather conditions in past years. The results will help you decide how hot, cold, wet, or windy it might be!

Date:

Astronomy

Apr. 09, 2013 Rise Set
Actual Time 6:57 AM EDT 7:52 PM EDT
Civil Twilight 6:30 AM EDT 8:19 PM EDT
Nautical Twilight 5:59 AM EDT 8:50 PM EDT
Astronomical Twilight 5:27 AM EDT 9:23 PM EDT
Moon 6:18 AM EDT (4/9) 7:26 PM EDT (4/9)
Length of Visible Light 13h 48m
Length of Day
12h 55m
Waning Crescent, 1% of the Moon is Illuminated
Apr 9
Waning Crescent
Apr 10
New
Apr 18
First Quarter
Apr 25
Full
May 2
Last Quarter

Hourly Weather History & Observations

Time (EDT) Temp. Dew Point Humidity Pressure Visibility Wind Dir Wind Speed Gust Speed Precip Events Conditions
12:15 AM 62.6 °F 50.0 °F 63% 30.16 in 10.0 mi SSW 8.1 mph - N/A   Clear
12:35 AM 62.6 °F 50.0 °F 63% 30.16 in 10.0 mi South 8.1 mph - N/A   Clear
12:55 AM 62.6 °F 51.8 °F 68% 30.16 in 10.0 mi SSW 8.1 mph - N/A   Clear
1:15 AM 62.6 °F 51.8 °F 68% 30.17 in 10.0 mi SW 3.5 mph - N/A   Clear
1:35 AM 62.6 °F 51.8 °F 68% 30.17 in 10.0 mi SSW 6.9 mph - N/A   Clear
1:55 AM 62.6 °F 51.8 °F 68% 30.18 in 10.0 mi Calm Calm - N/A   Clear
2:15 AM 62.6 °F 50.0 °F 63% 30.18 in 10.0 mi SSW 5.8 mph - N/A   Clear
2:35 AM 62.6 °F 51.8 °F 68% 30.17 in 10.0 mi SSW 4.6 mph - N/A   Clear
2:55 AM 62.6 °F 51.8 °F 68% 30.17 in 10.0 mi SSW 4.6 mph - N/A   Clear
3:15 AM 60.8 °F 51.8 °F 72% 30.17 in 10.0 mi SSW 4.6 mph - N/A   Clear
3:35 AM 60.8 °F 51.8 °F 72% 30.17 in 10.0 mi SSW 5.8 mph - N/A   Clear
3:55 AM 60.8 °F 51.8 °F 72% 30.17 in 10.0 mi SSW 5.8 mph - N/A   Clear
4:15 AM 60.8 °F 51.8 °F 72% 30.18 in 10.0 mi SSW 4.6 mph - N/A   Clear
4:35 AM 60.8 °F 50.0 °F 68% 30.19 in 10.0 mi SW 4.6 mph - N/A   Clear
4:55 AM 59.0 °F 51.8 °F 77% 30.19 in 10.0 mi WSW 3.5 mph - N/A   Clear
5:15 AM 59.0 °F 51.8 °F 77% 30.19 in 10.0 mi WSW 3.5 mph - N/A   Clear
5:35 AM 59.0 °F 51.8 °F 77% 30.19 in 10.0 mi SW 3.5 mph - N/A   Clear
5:55 AM 57.2 °F 51.8 °F 82% 30.20 in 10.0 mi Calm Calm - N/A   Clear
6:15 AM 57.2 °F 51.8 °F 82% 30.20 in 10.0 mi SSW 5.8 mph - N/A   Clear
6:35 AM 57.2 °F 50.0 °F 77% 30.20 in 10.0 mi SSW 3.5 mph - N/A   Clear
6:55 AM 55.4 °F 50.0 °F 82% 30.21 in 10.0 mi SSW 5.8 mph - N/A   Clear
7:15 AM 55.4 °F 50.0 °F 82% 30.22 in 10.0 mi SSW 5.8 mph - N/A   Clear
7:35 AM 53.6 °F 50.0 °F 88% 30.22 in 10.0 mi SSW 6.9 mph - N/A   Clear
7:55 AM 55.4 °F 50.0 °F 82% 30.23 in 10.0 mi SW 3.5 mph - N/A   Clear
8:15 AM 55.4 °F 50.0 °F 82% 30.24 in 10.0 mi SW 5.8 mph - N/A   Clear
8:35 AM 57.2 °F 51.8 °F 82% 30.24 in 10.0 mi SSW 5.8 mph - N/A   Clear
8:55 AM 59.0 °F 51.8 °F 77% 30.25 in 10.0 mi SSW 4.6 mph - N/A   Clear
9:15 AM 60.8 °F 51.8 °F 72% 30.25 in 10.0 mi SW 3.5 mph - N/A   Clear
9:35 AM 62.6 °F 53.6 °F 72% 30.25 in 10.0 mi SW 4.6 mph - N/A   Clear
9:55 AM 66.2 °F 53.6 °F 64% 30.25 in 10.0 mi SSW 4.6 mph - N/A   Clear
10:15 AM 66.2 °F 53.6 °F 64% 30.26 in 10.0 mi SW 4.6 mph - N/A   Clear
10:35 AM 69.8 °F 53.6 °F 56% 30.26 in 10.0 mi SW 6.9 mph - N/A   Clear
10:55 AM 71.6 °F 51.8 °F 50% 30.26 in 10.0 mi SW 8.1 mph - N/A   Clear
11:15 AM 71.6 °F 53.6 °F 53% 30.26 in 10.0 mi WSW 5.8 mph - N/A   Clear
11:35 AM 73.4 °F 53.6 °F 50% 30.26 in 10.0 mi WSW 6.9 mph - N/A   Scattered Clouds
11:55 AM 73.4 °F 51.8 °F 47% 30.25 in 10.0 mi NNW 4.6 mph - N/A   Scattered Clouds
12:15 PM 75.2 °F 51.8 °F 44% 30.24 in 10.0 mi SSW 8.1 mph - N/A   Clear
12:35 PM 75.2 °F 51.8 °F 44% 30.24 in 10.0 mi SSW 8.1 mph - N/A   Scattered Clouds
12:55 PM 77.0 °F 51.8 °F 41% 30.23 in 10.0 mi NE 4.6 mph - N/A   Scattered Clouds
1:15 PM 78.8 °F 51.8 °F 39% 30.22 in 10.0 mi South 9.2 mph - N/A   Scattered Clouds
1:35 PM 78.8 °F 50.0 °F 36% 30.22 in 10.0 mi SSW 10.4 mph 17.3 mph N/A   Clear
1:55 PM 78.8 °F 48.2 °F 34% 30.21 in 10.0 mi SSW 10.4 mph 16.1 mph N/A   Clear
2:15 PM 78.8 °F 46.4 °F 32% 30.20 in 10.0 mi SSW 12.7 mph 20.7 mph N/A   Clear
2:35 PM 80.6 °F 48.2 °F 32% 30.20 in 10.0 mi SSW 12.7 mph 19.6 mph N/A   Clear
2:55 PM 80.6 °F 50.0 °F 34% 30.19 in 10.0 mi South 11.5 mph 16.1 mph N/A   Clear
3:15 PM 80.6 °F 50.0 °F 34% 30.18 in 10.0 mi South 9.2 mph - N/A   Clear
3:35 PM 80.6 °F 48.2 °F 32% 30.18 in 10.0 mi SSW 8.1 mph 19.6 mph N/A   Clear
3:55 PM 80.6 °F 48.2 °F 32% 30.17 in 10.0 mi South 8.1 mph - N/A   Clear
4:15 PM 80.6 °F 48.2 °F 32% 30.16 in 10.0 mi South 11.5 mph 20.7 mph N/A   Clear
4:35 PM 80.6 °F 46.4 °F 30% 30.16 in 10.0 mi South 6.9 mph 18.4 mph N/A   Clear
4:55 PM 80.6 °F 46.4 °F 30% 30.15 in 10.0 mi SSW 11.5 mph - N/A   Clear
5:15 PM 80.6 °F 46.4 °F 30% 30.15 in 10.0 mi South 8.1 mph 16.1 mph N/A   Clear
5:35 PM 78.8 °F 46.4 °F 32% 30.15 in 10.0 mi South 10.4 mph 16.1 mph N/A   Clear
5:55 PM 80.6 °F 46.4 °F 30% 30.15 in 10.0 mi SSW 10.4 mph - N/A   Clear
6:15 PM 78.8 °F 46.4 °F 32% 30.16 in 10.0 mi South 8.1 mph - N/A   Clear
6:35 PM 78.8 °F 46.4 °F 32% 30.16 in 10.0 mi South 6.9 mph - N/A   Clear
6:55 PM 78.8 °F 48.2 °F 34% 30.15 in 10.0 mi South 6.9 mph - N/A   Clear
7:15 PM 77.0 °F 48.2 °F 36% 30.15 in 10.0 mi South 8.1 mph - N/A   Clear
7:35 PM 75.2 °F 50.0 °F 41% 30.16 in 10.0 mi South 8.1 mph - N/A   Clear
7:55 PM 75.2 °F 50.0 °F 41% 30.16 in 10.0 mi South 6.9 mph - N/A   Clear
8:15 PM 73.4 °F 51.8 °F 47% 30.17 in 10.0 mi South 4.6 mph - N/A   Clear
8:35 PM 73.4 °F 51.8 °F 47% 30.17 in 10.0 mi South 5.8 mph - N/A   Clear
8:55 PM 71.6 °F 53.6 °F 53% 30.17 in 10.0 mi South 4.6 mph - N/A   Clear
9:15 PM 71.6 °F 53.6 °F 53% 30.18 in 10.0 mi South 6.9 mph - N/A   Clear
9:35 PM 71.6 °F 55.4 °F 57% 30.18 in 10.0 mi South 8.1 mph - N/A   Clear
9:55 PM 71.6 °F 55.4 °F 57% 30.18 in 10.0 mi South 9.2 mph - N/A   Clear
10:15 PM 71.6 °F 55.4 °F 57% 30.17 in 10.0 mi South 9.2 mph - N/A   Clear
10:55 PM 69.8 °F 55.4 °F 60% 30.16 in 10.0 mi South 8.1 mph - N/A   Clear
11:15 PM 69.8 °F 55.4 °F 60% 30.15 in 10.0 mi South 6.9 mph - N/A   Clear
11:35 PM 69.8 °F 55.4 °F 60% 30.15 in 10.0 mi South 8.1 mph - N/A   Clear
11:55 PM 69.8 °F 55.4 °F 60% 30.15 in 10.0 mi South 9.2 mph - N/A   Clear